Home   Weather   Braga   Past weeks

Flag for Portugal Past Weather in Braga, Portugal — Yesterday and Last 2 Weeks

Now
66 °F

Mild.


Feels Like: 66 °F
Forecast: 49 / 73 °F
Wind: 7 mph from Northwest

Location: Porto / Pedras Rubras

Current Time: Sep 25, 2016 at 6:26:32 PM

Latest Report: Sep 25, 2016 at 5:00 PM


Visibility: N/A

Pressure: 30.18 "Hg

Humidity: 64%

Dew Point: 54 °F

Location of BragaLocation

Past Weather in Braga — Graph

°F

Braga Temperature Yesterday

Maximum temperature yesterday: 71 °F (at 5:00 PM)
Minimum temperature yesterday: 55 °F (at 7:00 AM)
Average temperature yesterday: 62 °F

High & Low Weather Summary for the Past Weeks

 TemperatureHumidityPressure
High77 °F (Sep 18, 12:00 PM)95% (Sep 11, 4:00 AM)30.27 "Hg (Sep 11, 4:00 AM)
Low53 °F (Sep 20, 7:00 AM)32% (Sep 19, 4:00 PM)29.78 "Hg (Sep 13, 6:00 AM)
Average63 °F77%30.10 "Hg
* Reported Sep 10 4:00 PM — Sep 25 4:00 PM, Braga, Weather by CustomWeather, © 2016

Note: Actual official high and low records may vary slightly from our data, if they occured in-between our weather recording intervals... More about our weather records

Advertising

Braga Weather History for the Previous 24 Hours

Scroll right to see more
 ConditionsComfort  
Time TempWeatherWind HumidityBarometerVisibility
4:00 PM
Sun, Sep 25
68 °FMild.7 mph63%30.19 "HgN/A
3:00 PM70 °FMild.7 mph59%30.19 "HgN/A
2:00 PM69 °FMild.6 mph62%30.19 "HgN/A
1:00 PM68 °FMild.3 mph69%30.21 "HgN/A
12:00 PM67 °FMild.3 mph67%30.23 "HgN/A
11:00 AM64 °FMild.2 mph75%30.22 "HgN/A
10:00 AM64 °FMild.2 mph78%30.22 "HgN/A
9:00 AM60 °FCool.2 mph85%30.21 "HgN/A
8:00 AM57 °FCool.2 mph91%30.21 "HgN/A
7:00 AM56 °FCool.2 mph91%30.20 "HgN/A
6:00 AM55 °FCool.2 mph91%30.18 "HgN/A
5:00 AM56 °FCool.2 mph91%30.16 "HgN/A
4:00 AM56 °FCool.2 mph92%30.16 "HgN/A
3:00 AM56 °FCool.2 mph92%30.16 "HgN/A
2:00 AM57 °FCool.2 mph91%30.16 "HgN/A
1:00 AM58 °FCool.2 mph91%30.16 "HgN/A
12:00 AM60 °FCool.3 mph92%30.15 "HgN/A
11:00 PM
Sat, Sep 24
61 °FCool.7 mph91%30.14 "HgN/A
10:00 PM64 °FMild.6 mph92%30.11 "HgN/A
9:00 PM63 °FMild.6 mph91%30.11 "HgN/A
8:00 PM65 °FMild.6 mph81%30.10 "HgN/A
7:00 PM67 °FMild.5 mph73%30.10 "HgN/A
6:00 PM68 °FMild.3 mph68%30.11 "HgN/A
Weather by CustomWeather, © 2016

See weather overviewHow to use our weather pages